[[{"header":{"parameterUnit":"m.s-1","parameterCategory":1,"la1":30.2991,"la2":30.254,"lo1":-89.0895,"lo2":-89.0444,"dy":0.0017,"dx":0.0017,"nx":28,"ny":28,"refTime":"2024-02-18T09:00:00:Z","depth":0,"parameterNumber":2,"parameterNumberName":"U-component_of_WINDS"},"data":[0,0,0,0,0,0,0,0,0,0,0,0,0,0,0,0,0,0,0,0,0,0,0,0,0,0,0,0,0,0,0,0,0,0,0,0,0,0,0,0,0,0,0,0,0,0,0,0,0,0,0,0,0,0,0,0,0,0,-1.4825,-1.4826,0,-1.4925,-1.4927,-1.4928,-1.4908,-1.4907,-1.4905,-1.4903,-1.5008,-1.5012,-1.5017,0,0,0,0,0,0,0,0,0,0,0,0,0,-1.4617,-1.4621,-1.4825,-1.4826,-1.4827,-1.4925,-1.4927,-1.4928,-1.4909,-1.4907,-1.4904,-1.4902,-1.5006,-1.5012,-1.5017,0,0,0,0,0,0,0,0,0,0,0,0,0,-1.4711,-1.4622,-1.4825,-1.483,-1.4831,-1.4925,-1.4927,-1.4928,-1.4909,-1.4907,-1.4904,-1.4901,-1.5005,-1.5011,-1.5018,-1.5114,0,0,-1.5038,-1.5041,0,0,0,0,0,0,0,0,-1.4706,-1.4719,-1.4828,-1.4829,-1.4831,-1.4902,-1.4892,-1.4991,-1.491,-1.488,-1.4903,-1.49,-1.4975,-1.4984,-1.5009,-1.5119,-1.5123,-1.5039,-1.5043,-1.5046,-1.5048,0,0,0,0,0,0,0,-1.47,-1.4715,-1.4865,-1.4829,-1.4831,-1.4827,-1.4837,-1.491,-1.4941,-1.4882,-1.4881,-1.4893,-1.4975,-1.5002,-1.5011,-1.5125,-1.5039,-1.5045,-1.5049,-1.5051,-1.5318,-1.5321,0,0,0,0,0,0,-1.4691,-1.4709,-1.4862,-1.4868,-1.4761,-1.4833,-1.4844,-1.4882,-1.494,-1.4947,-1.4895,-1.4892,-1.4992,-1.5003,-1.5015,-1.5131,-1.5046,-1.5052,-1.5056,-1.5315,-1.5319,-1.5322,0,0,0,0,0,0,-1.4687,-1.4705,-1.4857,-1.4788,-1.4807,-1.4839,-1.4881,-1.4885,-1.4912,-1.495,-1.4956,-1.4917,-1.499,-1.5005,-1.5089,-1.5135,-1.5055,-1.5061,-1.5311,-1.5316,-1.532,-1.5365,0,0,0,0,0,0,-1.4681,-1.4703,-1.474,-1.4789,-1.4811,-1.493,-1.4884,-1.4889,-1.4924,-1.492,-1.4972,-1.4978,-1.4989,-1.5079,-1.5096,-1.5142,-1.5066,-1.5308,-1.5313,-1.5319,-1.536,-1.5371,-1.538,0,0,0,0,0,-1.4674,-1.4749,-1.4742,-1.4761,-1.4858,-1.4933,-1.4946,-1.4956,-1.4927,-1.4965,-1.4989,-1.4977,-1.5126,-1.5088,-1.5106,-1.5156,-1.5305,-1.5312,-1.5318,-1.5355,-1.5369,-1.538,0,0,0,0,0,0,-1.4706,-1.4756,-1.4749,-1.4843,-1.4884,-1.493,-1.4977,-1.497,-1.5021,-1.5015,-1.5026,-1.5038,-1.5124,-1.5148,-1.5104,-1.5251,-1.5212,-1.5222,-1.5233,-1.5246,-1.5256,-1.5249,-1.5072,0,0,0,0,0,-1.4724,-1.4781,-1.4821,-1.49,-1.4921,-1.4946,-1.4979,-1.4983,-1.5026,-1.5044,-1.5074,-1.5117,-1.5173,-1.5211,-1.5265,-1.5362,-1.5374,-1.5405,-1.5415,-1.5423,-1.5433,-1.5487,-1.5501,-1.5345,-1.5344,-1.5344,0,0,-1.4762,-1.4796,-1.4832,-1.4908,-1.494,-1.4999,-1.496,-1.5024,-1.5068,-1.5054,-1.5135,-1.5158,-1.5207,-1.5298,-1.5339,-1.5321,-1.5479,-1.5432,-1.5438,-1.5444,-1.5495,-1.551,-1.5523,-1.5349,-1.5348,-1.5348,0,0,-1.4862,-1.4893,-1.4963,-1.4995,-1.5044,-1.506,-1.5076,-1.5123,-1.5138,-1.5219,-1.521,-1.5261,-1.5359,-1.5393,-1.5424,-1.5535,-1.5526,-1.5552,-1.5606,-1.5657,-1.567,-1.5681,-1.5721,-1.5735,-1.5561,-1.5561,-1.5561,0,-1.4904,-1.4992,-1.4999,-1.5064,-1.5098,-1.5086,-1.5156,-1.5188,-1.5252,-1.5276,-1.5253,-1.5374,-1.5406,-1.5505,-1.5532,-1.5556,-1.5576,-1.5547,-1.5667,-1.5678,-1.5689,-1.5727,-1.5743,-1.5564,-1.5564,-1.5564,-1.5563,0,-1.5041,-1.5102,-1.5152,-1.5213,-1.5252,-1.532,-1.5338,-1.5376,-1.5376,-1.5394,-1.5477,-1.5514,-1.5575,-1.5598,-1.56,-1.5698,-1.5684,-1.5664,-1.5625,-1.5707,-1.5743,-1.5758,-1.5568,-1.5567,-1.5567,-1.5566,0,0,-1.5167,-1.523,-1.5249,-1.5276,-1.5328,-1.5376,-1.5442,-1.5501,-1.5534,-1.5578,-1.5635,-1.5716,-1.5697,-1.5732,-1.5736,-1.5782,-1.5868,-1.5756,-1.5757,-1.5777,-1.5978,-1.5995,-1.6012,-1.5861,-1.5863,-1.5866,-1.5975,0,-1.5273,-1.539,-1.5397,-1.5503,-1.556,-1.5548,-1.5605,-1.5644,-1.5661,-1.5712,-1.5731,-1.5789,-1.576,-1.5781,-1.5825,-1.5848,-1.5909,-1.584,-1.5914,-1.5917,-1.5904,-1.6031,-1.6048,-1.6149,-1.5989,-1.5991,-1.5993,0,-1.5413,-1.546,-1.5571,-1.5615,-1.5639,-1.569,-1.5745,-1.5793,-1.5836,-1.5845,-1.5883,-1.5881,-1.5948,-1.5904,-1.5998,-1.5951,-1.5982,-1.5997,-1.6001,-1.6011,-1.5961,-1.6045,-1.6182,-1.6198,-1.6016,-1.6014,-1.6012,0,-1.5495,-1.5586,-1.5665,-1.5689,-1.5741,-1.5777,-1.5801,-1.5841,-1.5875,-1.5923,-1.5945,-1.6,-1.603,-1.6073,-1.6085,-1.6052,-1.6179,-1.6136,-1.619,-1.619,-1.6219,-1.6218,-1.6365,-1.6236,-1.6235,-1.6235,-1.6235,0,-1.5614,-1.5683,-1.5703,-1.5751,-1.5828,-1.5835,-1.5911,-1.5932,-1.5967,-1.6019,-1.6012,-1.6061,-1.6074,-1.6125,-1.6135,-1.6212,-1.6225,-1.6236,-1.6238,-1.6238,-1.6236,-1.6259,-1.6253,-1.6239,-1.6238,-1.6237,-1.6237,0,-1.572,-1.5736,-1.5821,-1.5862,-1.5874,-1.5929,-1.5965,-1.6011,-1.6027,-1.6093,-1.6109,-1.6134,-1.6194,-1.621,-1.6282,-1.6289,-1.6379,-1.6374,-1.6365,-1.6366,-1.6419,-1.6414,-1.6588,-1.6611,-1.6465,-1.6466,-1.6467,0,-1.5796,-1.5848,-1.5895,-1.5929,-1.5954,-1.6009,-1.6044,-1.6053,-1.609,-1.6141,-1.6182,-1.6241,-1.6289,-1.6385,-1.641,-1.6465,-1.6462,-1.6519,-1.647,-1.6468,-1.6465,-1.6462,-1.6468,-1.6529,-1.653,-1.6532,-1.6533,0,-1.5929,-1.5933,-1.5984,-1.6037,-1.6079,-1.6122,-1.6162,-1.6191,-1.6205,-1.6247,-1.6308,-1.6345,-1.6418,-1.6477,-1.6531,-1.6556,-1.6547,-1.6547,-1.6563,-1.6564,-1.6557,-1.6563,-1.6392,-1.6544,-1.6543,-1.6542,-1.6541,-1.6541,-1.6023,-1.6069,-1.6109,-1.6165,-1.6196,-1.6234,-1.628,-1.63,-1.6351,-1.6411,-1.6413,-1.6479,-1.6519,-1.6592,-1.6619,-1.6671,-1.6654,-1.6677,-1.6683,-1.6689,-1.6694,-1.6547,-1.6681,-1.6681,-1.6681,-1.668,-1.668,0,-1.6157,-1.6181,-1.6233,-1.629,-1.6334,-1.632,-1.6364,-1.6402,-1.646,-1.6498,-1.6545,-1.6615,-1.6671,-1.6699,-1.6755,-1.6792,-1.6789,-1.6806,-1.6805,-1.681,-1.6705,-1.6687,-1.6807,-1.6807,-1.6807,-1.6807,-1.6807,-1.6807,-1.6232,-1.6309,-1.6319,-1.6411,-1.6435,-1.65,-1.6526,-1.6561,-1.6591,-1.6669,-1.6715,-1.6733,-1.6767,-1.6825,-1.6876,-1.6883,-1.6904,-1.6924,-1.6929,-1.6831,-1.6818,-1.6806,-1.6788,-1.6928,-1.6928,-1.703,-1.7031,-1.7031]},{"header":{"parameterUnit":"m.s-1","parameterCategory":1,"la1":30.2991,"la2":30.254,"lo1":-89.0895,"lo2":-89.0444,"dy":0.0017,"dx":0.0017,"nx":28,"ny":28,"refTime":"2024-02-18T09:00:00:Z","depth":0,"parameterNumber":3,"parameterNumberName":"V-component_of_WINDS"},"data":[0,0,0,0,0,0,0,0,0,0,0,0,0,0,0,0,0,0,0,0,0,0,0,0,0,0,0,0,0,0,0,0,0,0,0,0,0,0,0,0,0,0,0,0,0,0,0,0,0,0,0,0,0,0,0,0,0,0,-7.9722,-7.9723,0,-7.9858,-7.9859,-7.9861,-7.9779,-7.9775,-7.9771,-7.9768,-7.99,-7.9907,-7.9914,0,0,0,0,0,0,0,0,0,0,0,0,0,-7.9385,-7.9391,-7.9722,-7.9724,-7.9725,-7.9857,-7.9859,-7.9861,-7.978,-7.9775,-7.977,-7.9766,-7.9898,-7.9906,-7.9915,0,0,0,0,0,0,0,0,0,0,0,0,0,-7.9527,-7.9394,-7.9722,-7.9701,-7.97,-7.9857,-7.9859,-7.9862,-7.9781,-7.9775,-7.9769,-7.9764,-7.9895,-7.9905,-7.9916,-8.0099,0,0,-7.9949,-7.9953,0,0,0,0,0,0,0,0,-7.9519,-7.9539,-7.9702,-7.9703,-7.9702,-7.9796,-7.9789,-7.9941,-7.9782,-7.975,-7.9768,-7.9761,-7.987,-7.9882,-7.992,-8.0105,-8.011,-7.995,-7.9956,-7.9961,-7.9964,0,0,0,0,0,0,0,-7.9509,-7.9533,-7.9775,-7.9705,-7.9705,-7.9682,-7.9696,-7.9817,-7.9841,-7.9752,-7.9747,-7.9764,-7.9868,-7.991,-7.9923,-8.0112,-7.9949,-7.9959,-7.9965,-7.997,-8.0452,-8.0458,0,0,0,0,0,0,-7.9502,-7.9525,-7.9771,-7.9779,-7.9595,-7.9693,-7.9708,-7.9771,-7.9839,-7.9844,-7.9769,-7.976,-7.9894,-7.991,-7.9927,-8.0145,-7.9961,-7.9971,-7.9977,-8.0446,-8.0453,-8.046,0,0,0,0,0,0,-7.9495,-7.9525,-7.9765,-7.9651,-7.968,-7.9705,-7.9776,-7.9777,-7.9819,-7.9852,-7.9855,-7.9808,-7.9891,-7.9912,-8.0057,-8.0148,-7.9975,-7.9985,-8.0438,-8.0448,-8.0457,-8.0582,0,0,0,0,0,0,-7.9486,-7.9523,-7.9594,-7.9653,-7.9686,-7.9896,-7.9782,-7.9784,-7.9838,-7.9828,-7.9889,-7.9893,-7.9888,-8.0041,-8.0067,-8.016,-7.9994,-8.043,-8.0442,-8.0454,-8.057,-8.0595,-8.0616,0,0,0,0,0,-7.9474,-7.9623,-7.9598,-7.9628,-7.9777,-7.9901,-7.992,-7.9912,-7.9846,-7.9917,-7.9938,-7.9892,-8.0134,-8.0057,-8.0085,-8.0182,-8.0424,-8.0439,-8.0453,-8.056,-8.059,-8.0616,0,0,0,0,0,0,-7.9572,-7.963,-7.9604,-7.9777,-7.9835,-7.9887,-7.9977,-7.9945,-8.0021,-8.0008,-7.9992,-8.0007,-8.0158,-8.0184,-8.0097,-8.0362,-8.0268,-8.0289,-8.0339,-8.0369,-8.0391,-8.0382,-8.0002,0,0,0,0,0,-7.9614,-7.9713,-7.9757,-7.9905,-7.9936,-7.9952,-8.0006,-7.9995,-8.0053,-8.0077,-8.0108,-8.0165,-8.0254,-8.0312,-8.0396,-8.0573,-8.0584,-8.0654,-8.0677,-8.0695,-8.0714,-8.0808,-8.0839,-8.0507,-8.0507,-8.0507,0,0,-7.9701,-7.9745,-7.9808,-7.9926,-7.997,-8.007,-7.9973,-8.0083,-8.0156,-8.0093,-8.0232,-8.0257,-8.0319,-8.0481,-8.0553,-8.0507,-8.0807,-8.0714,-8.0729,-8.0737,-8.0826,-8.0857,-8.0885,-8.0517,-8.0515,-8.0514,0,0,-7.9912,-7.9956,-8.0084,-8.013,-8.0198,-8.0207,-8.0238,-8.0296,-8.0311,-8.045,-8.0404,-8.049,-8.0643,-8.0689,-8.0733,-8.0959,-8.0919,-8.0987,-8.1107,-8.1199,-8.1225,-8.1248,-8.1329,-8.1358,-8.1005,-8.1005,-8.1005,0,-8.0011,-8.0163,-8.0153,-8.0267,-8.032,-8.0268,-8.0397,-8.0441,-8.0532,-8.0568,-8.0516,-8.0707,-8.0745,-8.0916,-8.0971,-8.1009,-8.1041,-8.098,-8.1223,-8.1246,-8.1267,-8.1343,-8.1374,-8.1013,-8.1012,-8.1011,-8.101,0,-8.0281,-8.0386,-8.0481,-8.0573,-8.0636,-8.0756,-8.0763,-8.0827,-8.081,-8.0824,-8.0966,-8.101,-8.1101,-8.114,-8.1124,-8.1309,-8.1278,-8.1225,-8.113,-8.1307,-8.1378,-8.1407,-8.1024,-8.1021,-8.1019,-8.1017,0,0,-8.0558,-8.0643,-8.0678,-8.0718,-8.0789,-8.0869,-8.0986,-8.1077,-8.1132,-8.1196,-8.1292,-8.1423,-8.1374,-8.1423,-8.1411,-8.1492,-8.1668,-8.1428,-8.1429,-8.1471,-8.1873,-8.1913,-8.1947,-8.1641,-8.1647,-8.1651,-8.1867,0,-8.0772,-8.098,-8.0974,-8.1166,-8.1262,-8.1214,-8.1316,-8.1369,-8.1384,-8.1466,-8.1482,-8.1575,-8.1503,-8.1533,-8.1611,-8.163,-8.1748,-8.1614,-8.1729,-8.1733,-8.1715,-8.1984,-8.2027,-8.2229,-8.1895,-8.19,-8.1903,0,-8.1051,-8.1127,-8.1329,-8.1385,-8.1425,-8.1517,-8.1599,-8.1679,-8.1737,-8.1742,-8.1798,-8.1772,-8.1888,-8.1791,-8.1949,-8.1858,-8.1904,-8.192,-8.1928,-8.1938,-8.1829,-8.2001,-8.2293,-8.2323,-8.1947,-8.1944,-8.194,0,-8.1232,-8.1384,-8.1525,-8.1561,-8.163,-8.1695,-8.1726,-8.1779,-8.1834,-8.1905,-8.194,-8.2022,-8.2068,-8.2131,-8.2128,-8.2057,-8.2288,-8.219,-8.2294,-8.2294,-8.2345,-8.2342,-8.2648,-8.2375,-8.2374,-8.2374,-8.2373,0,-8.1473,-8.1598,-8.1607,-8.1694,-8.1832,-8.1823,-8.1959,-8.1983,-8.203,-8.2118,-8.208,-8.2163,-8.2154,-8.2237,-8.2235,-8.2365,-8.2386,-8.2392,-8.239,-8.2396,-8.2395,-8.2426,-8.2411,-8.2382,-8.238,-8.2379,-8.2377,0,-8.1699,-8.171,-8.186,-8.1914,-8.193,-8.2029,-8.2073,-8.2154,-8.2166,-8.2278,-8.2303,-8.2322,-8.2417,-8.242,-8.2529,-8.2527,-8.2687,-8.2669,-8.2668,-8.2665,-8.2768,-8.2758,-8.3105,-8.3149,-8.2848,-8.2851,-8.2853,0,-8.1852,-8.1948,-8.2012,-8.2069,-8.2105,-8.2198,-8.2254,-8.2247,-8.2307,-8.238,-8.2451,-8.2544,-8.2617,-8.2771,-8.2793,-8.2875,-8.2859,-8.2975,-8.2871,-8.2873,-8.286,-8.2854,-8.2863,-8.2995,-8.2998,-8.3001,-8.3003,0,-8.2122,-8.2123,-8.2207,-8.2293,-8.2361,-8.2428,-8.2489,-8.2538,-8.2538,-8.2606,-8.2705,-8.2762,-8.2874,-8.2965,-8.3045,-8.3074,-8.3039,-8.3036,-8.3064,-8.3071,-8.3066,-8.307,-8.2723,-8.3028,-8.3025,-8.3023,-8.3022,-8.3021,-8.2316,-8.2399,-8.2457,-8.2551,-8.2597,-8.2655,-8.2733,-8.2756,-8.2838,-8.2931,-8.2921,-8.303,-8.3083,-8.3187,-8.3223,-8.3306,-8.3266,-8.3307,-8.3317,-8.3327,-8.3338,-8.3053,-8.332,-8.332,-8.3319,-8.3318,-8.3318,0,-8.2584,-8.2619,-8.2705,-8.2794,-8.2867,-8.2829,-8.2895,-8.2958,-8.3056,-8.3109,-8.3183,-8.3295,-8.3383,-8.3411,-8.3496,-8.3557,-8.3543,-8.358,-8.3575,-8.3582,-8.337,-8.3337,-8.359,-8.359,-8.359,-8.359,-8.359,-8.359,-8.2732,-8.2869,-8.2877,-8.3035,-8.3068,-8.3177,-8.3218,-8.327,-8.3313,-8.3441,-8.3515,-8.3533,-8.3576,-8.3664,-8.3742,-8.3748,-8.378,-8.3824,-8.3823,-8.3624,-8.3597,-8.3571,-8.354,-8.3831,-8.3831,-8.4028,-8.4029,-8.4031]}]]